Time,TemperatureF,DewpointF,PressureIn,WindDirection,WindDirectionDegrees,WindSpeedMPH,WindSpeedGustMPH,Humidity,HourlyPrecipIn,Conditions,Clouds,dailyrainin,SolarRadiationWatts/m^2,SoftwareType,DateUTC
2013-01-11 00:03:00,29.2,23.0,30.52,NNW,342,0.0,3.0,79,0.00,,,0.00,0,weatherlink.com 1.10,2013-01-11 05:03:00,
2013-01-11 00:19:00,29.0,23.0,30.52,NNE,33,0.0,3.0,79,0.00,,,0.00,0,weatherlink.com 1.10,2013-01-11 05:19:00,
2013-01-11 00:36:00,27.9,23.0,30.52,NNW,331,0.0,3.0,81,0.00,,,0.00,0,weatherlink.com 1.10,2013-01-11 05:36:00,
2013-01-11 00:52:00,26.7,22.0,30.52,NW,320,0.0,4.0,82,0.00,,,0.00,0,weatherlink.com 1.10,2013-01-11 05:52:00,
2013-01-11 01:08:00,26.2,22.0,30.52,WSW,243,0.0,2.0,83,0.00,,,0.00,0,weatherlink.com 1.10,2013-01-11 06:08:00,
2013-01-11 01:24:00,25.4,21.0,30.52,WSW,243,1.0,2.0,84,0.00,,,0.00,0,weatherlink.com 1.10,2013-01-11 06:24:00,
2013-01-11 01:39:00,24.6,21.0,30.53,South,182,0.0,2.0,85,0.00,,,0.00,0,weatherlink.com 1.10,2013-01-11 06:39:00,
2013-01-11 01:56:00,24.2,21.0,30.53,SE,128,1.0,5.0,87,0.00,,,0.00,0,weatherlink.com 1.10,2013-01-11 06:56:00,
2013-01-11 02:12:00,24.0,21.0,30.52,SE,128,1.0,1.0,87,0.00,,,0.00,0,weatherlink.com 1.10,2013-01-11 07:12:00,
2013-01-11 02:28:00,23.4,20.0,30.51,SE,128,1.0,3.0,87,0.00,,,0.00,0,weatherlink.com 1.10,2013-01-11 07:28:00,
2013-01-11 02:44:00,23.0,20.0,30.51,SE,128,0.0,0.0,88,0.00,,,0.00,0,weatherlink.com 1.10,2013-01-11 07:44:00,
2013-01-11 03:00:00,22.9,20.0,30.50,SE,128,1.0,2.0,90,0.00,,,0.00,0,weatherlink.com 1.10,2013-01-11 08:00:00,
2013-01-11 03:17:00,22.7,20.0,30.50,SE,128,0.0,1.0,89,0.00,,,0.00,0,weatherlink.com 1.10,2013-01-11 08:17:00,
2013-01-11 03:33:00,22.3,20.0,30.49,SW,223,0.0,3.0,91,0.00,,,0.00,0,weatherlink.com 1.10,2013-01-11 08:33:00,
2013-01-11 03:48:00,22.2,20.0,30.50,West,273,1.0,3.0,91,0.00,,,0.00,0,weatherlink.com 1.10,2013-01-11 08:48:00,
2013-01-11 04:04:00,22.0,20.0,30.49,West,275,0.0,2.0,91,0.00,,,0.00,0,weatherlink.com 1.10,2013-01-11 09:04:00,
2013-01-11 04:21:00,21.4,19.0,30.48,West,275,0.0,1.0,91,0.00,,,0.00,0,weatherlink.com 1.10,2013-01-11 09:21:00,
2013-01-11 04:38:00,21.2,19.0,30.48,NNW,344,1.0,3.0,91,0.00,,,0.00,0,weatherlink.com 1.10,2013-01-11 09:38:00,
2013-01-11 04:53:00,21.2,19.0,30.47,NNW,344,0.0,2.0,92,0.00,,,0.00,0,weatherlink.com 1.10,2013-01-11 09:53:00,
2013-01-11 05:09:00,21.1,19.0,30.48,NNW,348,0.0,3.0,93,0.00,,,0.00,0,weatherlink.com 1.10,2013-01-11 10:09:00,
2013-01-11 05:25:00,20.9,19.0,30.46,North,355,0.0,2.0,92,0.00,,,0.00,0,weatherlink.com 1.10,2013-01-11 10:25:00,
2013-01-11 05:40:00,20.9,19.0,30.47,North,355,0.0,3.0,93,0.00,,,0.00,0,weatherlink.com 1.10,2013-01-11 10:40:00,
2013-01-11 05:56:00,20.8,19.0,30.47,North,355,0.0,1.0,93,0.00,,,0.00,0,weatherlink.com 1.10,2013-01-11 10:56:00,
2013-01-11 06:29:00,20.8,19.0,30.47,NE,34,0.0,3.0,93,0.00,,,0.00,0,weatherlink.com 1.10,2013-01-11 11:29:00,
2013-01-11 06:45:00,20.6,19.0,30.48,NE,34,0.0,0.0,94,0.00,,,0.00,0,weatherlink.com 1.10,2013-01-11 11:45:00,
2013-01-11 07:01:00,20.8,19.0,30.49,NNE,22,1.0,3.0,94,0.00,,,0.00,0,weatherlink.com 1.10,2013-01-11 12:01:00,
2013-01-11 07:17:00,20.9,20.0,30.48,NNE,23,0.0,3.0,94,0.00,,,0.00,0,weatherlink.com 1.10,2013-01-11 12:17:00,
2013-01-11 07:33:00,21.0,20.0,30.49,NNE,23,0.0,2.0,94,0.00,,,0.00,11,weatherlink.com 1.10,2013-01-11 12:33:00,
2013-01-11 13:32:00,34.8,28.0,30.36,South,181,0.0,3.0,77,0.00,,,0.01,46,weatherlink.com 1.10,2013-01-11 18:32:00,
2013-01-11 13:43:00,34.8,29.0,30.35,SSE,161,0.0,4.0,78,0.00,,,0.01,69,weatherlink.com 1.10,2013-01-11 18:43:00,
2013-01-11 13:58:00,35.1,29.0,30.35,SSE,165,0.0,3.0,78,0.00,,,0.01,81,weatherlink.com 1.10,2013-01-11 18:58:00,
2013-01-11 14:13:00,35.2,29.0,30.35,SSE,165,0.0,3.0,78,0.00,,,0.01,58,weatherlink.com 1.10,2013-01-11 19:13:00,
2013-01-11 14:28:00,35.5,30.0,30.35,SSE,165,0.0,2.0,79,0.00,,,0.01,63,weatherlink.com 1.10,2013-01-11 19:28:00,
2013-01-11 14:43:00,35.6,30.0,30.35,SSE,162,0.0,3.0,80,0.00,,,0.01,40,weatherlink.com 1.10,2013-01-11 19:43:00,
2013-01-11 14:58:00,35.5,31.0,30.33,SE,144,3.0,5.0,82,0.01,,,0.02,23,weatherlink.com 1.10,2013-01-11 19:58:00,
2013-01-11 15:13:00,35.1,31.0,30.33,SE,140,2.0,4.0,86,0.03,,,0.04,37,weatherlink.com 1.10,2013-01-11 20:13:00,
2013-01-11 15:28:00,34.8,32.0,30.32,SE,140,1.0,2.0,88,0.06,,,0.07,12,weatherlink.com 1.10,2013-01-11 20:28:00,
2013-01-11 15:43:00,34.4,32.0,30.32,SSE,152,0.0,3.0,89,0.09,,,0.10,12,weatherlink.com 1.10,2013-01-11 20:43:00,
2013-01-11 15:58:00,34.0,31.0,30.31,SSE,152,0.0,3.0,90,0.08,,,0.10,11,weatherlink.com 1.10,2013-01-11 20:58:00,
2013-01-11 16:13:00,33.7,31.0,30.30,ESE,105,0.0,4.0,91,0.06,,,0.10,9,weatherlink.com 1.10,2013-01-11 21:13:00,
2013-01-11 16:29:00,33.5,32.0,30.30,SE,139,0.0,3.0,92,0.03,,,0.10,0,weatherlink.com 1.10,2013-01-11 21:29:00,
2013-01-11 16:43:00,33.3,31.0,30.29,SE,140,3.0,3.0,92,0.00,,,0.10,0,weatherlink.com 1.10,2013-01-11 21:43:00,
2013-01-11 16:59:00,33.2,31.0,30.28,SE,138,0.0,5.0,93,0.00,,,0.10,0,weatherlink.com 1.10,2013-01-11 21:59:00,
2013-01-11 17:14:00,33.1,31.0,30.28,SSE,163,1.0,4.0,93,0.00,,,0.10,0,weatherlink.com 1.10,2013-01-11 22:14:00,
2013-01-11 17:29:00,33.0,32.0,30.27,South,180,0.0,3.0,94,0.00,,,0.10,0,weatherlink.com 1.10,2013-01-11 22:29:00,
2013-01-11 17:44:00,32.9,31.0,30.27,South,180,0.0,2.0,94,0.00,,,0.10,0,weatherlink.com 1.10,2013-01-11 22:44:00,
2013-01-11 17:59:00,32.8,31.0,30.27,South,180,0.0,2.0,94,0.00,,,0.10,0,weatherlink.com 1.10,2013-01-11 22:59:00,
2013-01-11 18:14:00,32.8,31.0,30.26,South,180,1.0,4.0,94,0.02,,,0.12,0,weatherlink.com 1.10,2013-01-11 23:14:00,
2013-01-11 18:29:00,32.8,32.0,30.25,SSE,163,2.0,5.0,95,0.02,,,0.12,0,weatherlink.com 1.10,2013-01-11 23:29:00,
2013-01-11 18:44:00,33.0,32.0,30.25,SSE,147,2.0,3.0,95,0.04,,,0.14,0,weatherlink.com 1.10,2013-01-11 23:44:00,
2013-01-11 18:59:00,33.3,32.0,30.24,SSE,154,1.0,5.0,96,0.06,,,0.16,0,weatherlink.com 1.10,2013-01-11 23:59:00,
2013-01-11 19:14:00,33.4,32.0,30.23,SSE,151,3.0,4.0,96,0.05,,,0.17,0,weatherlink.com 1.10,2013-01-12 00:14:00,
2013-01-11 19:29:00,33.6,33.0,30.22,SSE,153,3.0,7.0,96,0.05,,,0.17,0,weatherlink.com 1.10,2013-01-12 00:29:00,
2013-01-11 19:44:00,33.7,33.0,30.23,SSW,201,0.0,5.0,96,0.04,,,0.18,0,weatherlink.com 1.10,2013-01-12 00:44:00,
2013-01-11 19:59:00,33.7,33.0,30.22,South,177,0.0,3.0,97,0.03,,,0.19,0,weatherlink.com 1.10,2013-01-12 00:59:00,
2013-01-11 20:14:00,33.7,33.0,30.22,South,177,0.0,2.0,97,0.03,,,0.20,0,weatherlink.com 1.10,2013-01-12 01:14:00,
2013-01-11 20:29:00,33.7,33.0,30.22,South,177,0.0,0.0,97,0.04,,,0.21,0,weatherlink.com 1.10,2013-01-12 01:29:00,
2013-01-11 20:44:00,33.7,33.0,30.21,South,177,0.0,1.0,97,0.04,,,0.22,0,weatherlink.com 1.10,2013-01-12 01:44:00,
2013-01-11 20:59:00,33.7,33.0,30.20,South,177,0.0,1.0,97,0.05,,,0.24,0,weatherlink.com 1.10,2013-01-12 01:59:00,
2013-01-11 21:14:00,33.7,33.0,30.20,South,177,1.0,2.0,97,0.04,,,0.24,0,weatherlink.com 1.10,2013-01-12 02:14:00,
2013-01-11 21:29:00,33.7,33.0,30.20,South,177,0.0,1.0,97,0.04,,,0.25,0,weatherlink.com 1.10,2013-01-12 02:29:00,
2013-01-11 21:44:00,33.7,33.0,30.19,South,177,0.0,3.0,97,0.03,,,0.25,0,weatherlink.com 1.10,2013-01-12 02:44:00,
2013-01-11 21:59:00,33.9,33.0,30.19,South,177,0.0,1.0,97,0.01,,,0.25,0,weatherlink.com 1.10,2013-01-12 02:59:00,
2013-01-11 22:14:00,34.0,33.0,30.20,South,177,0.0,2.0,97,0.01,,,0.25,0,weatherlink.com 1.10,2013-01-12 03:14:00,
2013-01-11 22:29:00,34.0,33.0,30.19,South,177,1.0,2.0,97,0.00,,,0.25,0,weatherlink.com 1.10,2013-01-12 03:29:00,
2013-01-11 22:44:00,34.1,33.0,30.18,South,177,0.0,2.0,97,0.00,,,0.25,0,weatherlink.com 1.10,2013-01-12 03:44:00,
2013-01-11 22:59:00,34.4,34.0,30.19,South,177,0.0,0.0,97,0.00,,,0.25,0,weatherlink.com 1.10,2013-01-12 03:59:00,
2013-01-11 23:14:00,34.5,34.0,30.18,South,177,0.0,0.0,97,0.00,,,0.25,0,weatherlink.com 1.10,2013-01-12 04:14:00,
2013-01-11 23:29:00,34.4,34.0,30.18,South,177,0.0,0.0,97,0.00,,,0.25,0,weatherlink.com 1.10,2013-01-12 04:29:00,
2013-01-11 23:44:00,34.2,34.0,30.18,South,177,0.0,0.0,97,0.00,,,0.25,0,weatherlink.com 1.10,2013-01-12 04:44:00,
2013-01-11 23:59:00,34.1,33.0,30.18,ENE,72,2.0,5.0,97,0.00,,,0.25,0,weatherlink.com 1.10,2013-01-12 04:59:00,